User: anonymous   Login
Location: Gipe Farm
(40.9466°N, 95.5370°W)
Time: 06:08:48
(UTC-06:00)
Language:

Cosmos 2082 Rocket - Orbit

View from above orbital plane
View from above orbital plane
View from above satellite
View from above satellite

Ground track
Ground track

The orbit data is extracted from the following two-line orbital elements,

1 20625U 90046B   16042.71484120  .00000275  00000-0  16760-3 0  9991
2 20625  70.9994 100.6179 0012834 141.0688 357.1317 14.14594220328333
Epoch (UTC): 11 February 2016 17:09:22
Eccentricity: 0.0012834
inclination: 70.9994°
perigee height: 834 km
apogee height: 853 km
right ascension of ascending node: 100.6179°
argument of perigee: 141.0688°
revolutions per day: 14.14594220
mean anomaly at epoch: 357.1317°
orbit number at epoch: 32833

The dashed part of the orbit path shows where the satellite is in the earth's shadow,  

DLR